Location: Kaarina
(60.4167°N, 22.4167°E)
Time: 21:13:53
(UTC+03:00)

BREEZE-M DEB (TANK) - Pass Details

Date: 24 August 2019
Orbit: 684 x 22244 km, 51.1° (Epoch: 22 September)

Event Time Altitude Azimuth Distance (km) Brightness Sun altitude
Rises 22:44:46 0° 246° (WSW) 3,061 6.4 -11.2°
Reaches altitude 10° 22:46:37 10° 236° (WSW) 2,265 5.5 -11.4°
Maximum altitude 22:50:44 39° 166° (SSE) 1,561 4.2 -11.7°
Drops below altitude 10° 23:00:29 10° 102° (ESE) 5,344 6.9 -12.5°
Sets 23:08:11 0° 97° (E) 8,456 7.9 -13.0°
